[Iaude] MPEC T177: 2023 TA7 [a=1.63,e=0.37,i=16.8,H=24.8]

mpec at marsden.cfa.harvard.edu mpec at marsden.cfa.harvard.edu
Thu Oct 12 01:54:18 EDT 2023


M.P.E.C. 2023-T177                             Issued 2023 October 12, 05:52 UT

     The Minor Planet Electronic Circulars contain information on unusual
         minor planets, routine data on comets and natural satellites,
         and occasional editorial announcements.  They are published
    on behalf of Division F of the International Astronomical Union by the
          Minor Planet Center, Smithsonian Astrophysical Observatory,
                          Cambridge, MA 02138, U.S.A.
			  
             Prepared using the Tamkin Foundation Computer Network

                              MPC at CFA.HARVARD.EDU
            URL https://www.minorplanetcenter.net/    ISSN 1523-6714

                                    2023 TA7                                    


Observations:
     K23T07A  C2023 10 05.22481622 03 20.594+22 55 17.39         19.59GVET177F51
     K23T07A  C2023 10 05.25108322 03 43.679+22 48 44.04         19.67GVET177F51
     K23T07A  C2023 10 05.26422322 03 55.211+22 45 25.68         19.78GVET177F51
     K23T07A  C2023 10 08.40427023 05 22.372+04 12 22.39         18.42GVET177F51
     K23T07A  C2023 10 08.41562823 05 37.329+04 07 09.54         18.36GVET177F51
     K23T07A  C2023 10 08.43933523 06 08.704+03 56 14.85         18.60GVET177F51
     K23T07A  C2023 10 10.33201823 55 06.484-11 43 52.67         18.40GVET177F52
     K23T07A  C2023 10 10.34285923 55 23.336-11 49 26.30         18.38GVET177F52
     K23T07A  C2023 10 10.35345523 55 39.803-11 54 51.52               VET177F52
     K23T07A  C2023 10 10.36394023 55 56.092-12 00 13.07         18.29GVET177F52
     K23T07A  C2023 10 10.36431723 55 56.674-12 00 24.99               VET177F52
     K23T07A  C2023 10 10.40841223 57 05.285-12 22 53.85         18.06GVET177F52
     K23T07A*1C2023 10 11.23343400 20 35.718-19 14 38.33         18.14GVET177703
     K23T07A 1C2023 10 11.23884700 20 44.506-19 17 16.12         18.57GVET177703
     K23T07A 1C2023 10 11.24426300 20 53.444-19 19 52.14         18.08GVET177703
     K23T07A 1C2023 10 11.24967300 21 02.149-19 22 27.26         18.33GVET177703
     K23T07A  C2023 10 11.27171400 21 37.186-19 33 07.83         18.5 GVET177H01
     K23T07A  C2023 10 11.27548900 21 43.351-19 34 56.04         18.7 GVET177H01
     K23T07A  C2023 10 11.28584000 22 00.277-19 39 53.49         18.5 GVET177H01
     K23T07A KC2023 10 11.29227900 22 11.752-19 42 54.22         18.34GVET177I52
     K23T07A  C2023 10 11.29273400 22 11.562-19 43 11.00         18.2 GVET177H01
     K23T07A KC2023 10 11.29280800 22 12.630-19 43 09.26         18.43GVET177I52
     K23T07A KC2023 10 11.29334600 22 13.508-19 43 24.74         18.42GVET177I52
     K23T07A KC2023 10 11.29388200 22 14.369-19 43 40.15         18.37GVET177I52
     K23T07A KC2023 10 11.36349900 24 08.694-20 16 40.15         18.55GVET177I52
     K23T07A KC2023 10 11.36467900 24 10.645-20 17 13.34         18.50GVET177I52
     K23T07A KC2023 10 11.36585300 24 12.582-20 17 46.64         18.32GVET177I52
     K23T07A KC2023 10 11.36702900 24 14.540-20 18 19.84         18.49GVET177I52
     K23T07A KC2023 10 11.56017600 30 03.01 -21 49 18.4          18.1 GVET177900
     K23T07A KC2023 10 11.57011900 30 19.43 -21 53 55.8          18.3 GVET177900
     K23T07A KC2023 10 11.58006100 30 35.84 -21 58 32.9          18.4 GVET177900
     K23T07A KC2023 10 11.86947700 39 06.98 -24 09 55.0          18.4 GXET177595
     K23T07A KC2023 10 11.87464600 39 15.60 -24 12 13.5          18.7 GXET177595
     K23T07A KC2023 10 11.87981900 39 24.24 -24 14 32.5          18.3 GXET177595
     K23T07A KC2023 10 11.91243 00 40 19.59 -24 28 56.8          18.9 GVET177104
     K23T07A KC2023 10 11.91662 00 40 26.56 -24 30 47.4          18.3 GVET177104
     K23T07A KC2023 10 11.92074 00 40 33.42 -24 32 36.7          19.1 GVET177104
     K23T07A KC2023 10 11.92810900 40 48.56 -24 35 47.4          18.5 GXET177958
     K23T07A KC2023 10 11.93293500 40 56.65 -24 37 55.4          18.6 GXET177958
     K23T07A KC2023 10 11.93776100 41 04.70 -24 40 02.2          18.1 GXET177958
     K23T07A KB2023 10 11.95998300 41 41.59 -24 49 49.9          18.6 GVET177I93
     K23T07A KB2023 10 11.96199400 41 44.96 -24 50 42.8          18.6 GVET177I93
     K23T07A KB2023 10 11.96399900 41 48.30 -24 51 35.9          18.7 GVET177I93

Observer details:
104 San Marcello Pistoiese.  Observers P. Bacci, M. Maestripieri.  Measurer P.
    Bacci.  0.60-m f/4.0 reflector + CCD.
595 Farra d'Isonzo.  Observers G. Panterotto, E. Pettarin.  Measurer E.
    Pettarin.  0.61-m f/4.5 reflector + CCD.
703 Catalina Sky Survey.  Observer G. J. Leonard.  Measurers E. C. Beshore, D.
    Fay, J. B. Fazekas, D. C. Fuls, A. R. Gibbs, A. D. Grauer, H. Groeller, J.
    K. Hogan, R. A. Kowalski, S. M. Larson, G. J. Leonard, D. Rankin, R. L.
    Seaman, F. C. Shelly, K. W. Wierzchos.  0.68-m Schmidt + 10K CCD.
900 Moriyama.  Observer Y. Ikari.  0.26-m f/7.0 reflector + CCD.
958 Observatoire de Dax.  Observers P. Dupouy, J. B. de Vanssay.  Measurer P.
    Dupouy.  0.43-m f/2.7 Reflector + CCD.
F51 Pan-STARRS 1, Haleakala.  Observers J. Bulger, T. Lowe, P. Minguez, A.
    Schultz, I. Smith.  Measurers K. Chambers, T. de Boer, J. Fairlamb, H.
    Gao, M. Huber, C.-C. Lin, E. Magnier, Y. Ramanjooloo, R. Wainscoat, R.
    Weryk.  1.8-m Ritchey-Chretien + CCD.
F52 Pan-STARRS 2, Haleakala.  Observers J. Bulger, T. Lowe, P. Minguez, A.
    Schultz, I. Smith.  Measurers K. Chambers, T. de Boer, J. Fairlamb, H.
    Gao, M. Huber, C.-C. Lin, E. Magnier, Y. Ramanjooloo, R. Wainscoat, R.
    Weryk.  1.8-m Ritchey-Chretien + CCD.
H01 Magdalena Ridge Observatory, Socorro.  Observers W. H. Ryan, E. V. Ryan.
    Measurer W. H. Ryan.  2.4-m f/8.9 Ritchey-Chretien + CCD.
I52 Steward Observatory, Mt. Lemmon Station.  Observer J. B. Fazekas.
    Measurers E. C. Beshore, D. Fay, J. B. Fazekas, D. C. Fuls, A. R. Gibbs,
    A. D. Grauer, H. Groeller, J. K. Hogan, R. A. Kowalski, S. M. Larson, G.
    J. Leonard, D. Rankin, R. L. Seaman, F. C. Shelly, K. W. Wierzchos.  1.0-m
    prime focus + CCD.
I93 St Pardon de Conques.  Observer F. Losse.  0.40-m f/3.7 reflector + CMO.

Orbital elements:
2023 TA7                                                 Earth MOID = 0.0291 AU
Epoch 2023 Sept. 13.0 TT = JDT 2460200.5                Veres                   
M 343.48764              (2000.0)            P               Q                  
n   0.47174493     Peri.  189.60706     +0.91292369     -0.40143707             
a   1.6342979      Node   194.73416     +0.39103417     +0.91199292             
e   0.3730055      Incl.   16.82366     +0.11688721     +0.08436349             
P   2.09           H   24.86          G   0.15           U   8                  
Residuals in seconds of arc
231005 F51  0.1+  0.1-    231011 703  0.9-  0.3+    231011 900  0.4+  0.6-
231005 F51  0.1-  0.0     231011 H01  0.0   0.1+    231011 595  0.8+  1.1+
231005 F51  0.0   0.0     231011 H01  0.0   0.3+    231011 595  0.2+  0.9+
231008 F51  0.1-  0.2+    231011 H01  0.0   0.0     231011 595  0.2-  0.2+
231008 F51  0.0   0.1+    231011 I52  0.2-  0.2+    231011 104  0.4+  0.2-
231008 F51  0.1+  0.0     231011 H01  0.1+  0.1+    231011 104  0.1+  0.2+
231010 F52  0.1+  0.5+    231011 I52  0.0   0.3+    231011 104  0.2-  0.0
231010 F52  0.1+  0.1+    231011 I52  0.0   0.2+    231011 958  0.4-  0.1+
231010 F52  0.0   0.2+    231011 I52  0.2-  0.2+    231011 958  0.1-  0.1-
231010 F52  0.0   0.3+    231011 I52  0.1-  0.2+    231011 958  0.3-  0.8+
231010 F52  0.1-  0.1-    231011 I52  0.1-  0.3+    231011 I93  0.3-  0.3+
231010 F52  0.0   0.2+    231011 I52  0.2-  0.1+    231011 I93  0.2-  0.2+
231011 703  0.1+  1.1-    231011 I52  0.0   0.1+    231011 I93  0.3-  0.3-
231011 703  0.6-  1.9-    231011 900  0.2-  0.3+
231011 703  0.9+  1.1-    231011 900  0.2+  0.1+

Ephemeris:
2023 TA7                 a,e,i = 1.63, 0.37, 17                  q = 1.0247
Date    TT    R. A. (2000) Decl.     Delta      r    Elong.  Phase     V
2023 09 12    20 06 18.6 +45 07 50   0.1710  1.0889   114.5    57.3    23.3
...
2023 09 27    20 44 00.3 +39 36 45   0.08630 1.0474   119.2    56.6    21.7
...
2023 10 05    21 59 41.8 +23 50 54   0.04513 1.0335   136.6    41.7    19.8
...
2023 10 11    00 13 48.5 -17 17 00   0.03203 1.0272   153.1    26.1    18.6
2023 10 12    00 42 49.2 -25 02 49   0.03339 1.0266   147.3    31.7    18.9
2023 10 13    01 12 00.7 -31 38 48   0.03573 1.0260   140.9    37.9    19.2
...
2023 10 19    03 30 53.7 -48 48 11   0.06138 1.0247   116.0    60.9    21.0
...
2023 10 27    04 51 01.4 -51 16 08   0.1048  1.0288   106.6    67.8    22.4
...
2023 11 11    05 34 10.8 -49 56 58   0.1866  1.0540   105.0    65.2    23.6

M. P. C. Staff               (C) Copyright 2023 MPC           M.P.E.C. 2023-T177





More information about the Iaude mailing list